Location: Charbonni�res
(45.9952°N, 2.9982°E)
Time: 18:13:24
(UTC+00:00)

MOS 1 Rocket - Pass Details

Date: 29 November 2020
Orbit: 614 x 830 km, 97.4° (Epoch: 17 January)

Event Time Altitude Azimuth Distance (km) Brightness Sun altitude
Rises 05:09:10 0° 153° (SSE) 3,063 7.2 -19.9°
Reaches altitude 10° 05:11:22 10° 149° (SSE) 2,182 6.4 -19.6°
Maximum altitude 05:16:04 57° 72° (ENE) 879 4.1 -18.8°
Drops below altitude 10° 05:21:06 10° 355° (N) 2,334 5.8 -17.9°
Sets 05:23:32 0° 352° (N) 3,296 6.6 -17.5°
